OK1KKY-18 Weather Reports


time (UTC)temp
C
wind
direction
speed
KPH
gust
KPH
rain 1hr
cm
rain 24hr
cm
rain mn
cm
humidity
%
barometer
mb
20260507021605 11 0.0 0.0 0.00 0.00 0.00 93 1008.3
20260507020604 11 0.0 0.0 0.00 0.00 0.00 92 1008.2
20260507015604 11 0.0 0.0 0.00 0.00 0.00 92 1008.2
20260507014604 11 0.0 0.0 0.00 0.00 0.00 92 1008.2
20260507013604 11 0.0 0.0 0.00 0.00 0.00 92 1008.2
20260507012604 11 0.0 0.0 0.00 0.00 0.00 93 1008.1
20260507011604 11 0.0 0.0 0.00 0.00 0.00 92 1008.0
20260507010604 11 0.0 0.0 0.00 0.00 0.00 91 1008.1
20260507005604 11 0.0 0.0 0.00 0.00 0.00 91 1008.2
20260507004604 10 0.0 0.0 0.00 0.00 0.00 91 1007.7
20260507003605 10 0.0 0.0 0.00 0.00 0.00 92 1007.2
20260507002604 10 0.0 0.0 0.00 0.00 0.00 92 1006.7
20260507001604 10 0.0 0.0 0.00 0.00 0.00 92 1006.7
20260507000604 10 0.0 0.0 0.00 0.00 0.00 92 1006.7
20260506235609 10 0.0 0.0 0.00 0.00 0.00 92 1006.9
20260506233605 10 0.0 0.0 0.00 0.00 0.00 92 1007.2
20260506232605 11 0.0 0.0 0.00 0.00 0.00 91 1007.9
20260506231605 11 0.0 0.0 0.00 0.00 0.00 91 1008.3
20260506230604 11 0.0 0.0 0.00 0.00 0.00 91 1008.6
20260506225604 11 0.0 0.0 0.00 0.00 0.00 92 1008.5
20260506224604 11 0.0 0.0 0.00 0.00 0.00 92 1008.4
20260506223605 11 0.0 0.0 0.00 0.00 0.00 92 1008.3
20260506222605 11 0.0 0.0 0.00 0.00 0.00 92 1007.2
20260506221604 11 0.0 0.0 0.00 0.00 0.00 92 1007.4
20260506220604 11 0.0 0.0 0.00 0.00 0.00 92 1007.0
20260506215604 11 0.0 0.0 0.00 0.00 0.00 91 1007.4
20260506214605 11 0.0 0.0 0.00 0.00 0.00 91 1007.4
20260506213605 11 0.0 0.0 0.00 0.00 0.00 90 1006.7
20260506212604 11 0.0 0.0 0.00 0.00 0.00 90 1006.9
20260506211604 11 0.0 0.0 0.00 0.00 0.00 90 1006.9
20260506210604 11 0.0 0.0 0.00 0.00 0.00 91 1006.8
20260506205605 11 0.0 0.0 0.00 0.00 0.00 90 1006.9
20260506204605 11 0.0 0.0 0.00 0.00 0.00 91 1006.7
20260506203605 11 0.0 0.0 0.00 0.00 0.00 90 1006.7
20260506202605 11 0.0 0.0 0.00 0.00 0.00 90 1006.7
20260506201604 11 0.0 0.0 0.00 0.00 0.00 90 1006.5
20260506200605 11 0.0 0.0 0.00 0.00 0.00 90 1006.7
20260506195605 11 0.0 0.0 0.00 0.00 0.00 90 1006.8
20260506194605 11 0.0 0.0 0.00 0.00 0.00 88 1006.3
20260506193604 11 0.0 0.0 0.00 0.00 0.00 89 1006.0
20260506192605 12 0.0 0.0 0.00 0.00 0.00 88 1006.3
20260506191605 11 0.0 0.0 0.00 0.00 0.00 90 1006.0
20260506190604 12 0.0 0.0 0.00 0.00 0.00 88 1006.1
20260506185605 12 0.0 0.0 0.00 0.00 0.00 88 1005.8
20260506184605 12 0.0 0.0 0.00 0.00 0.00 87 1005.6
20260506183604 12 0.0 0.0 0.00 0.00 0.00 89 1005.9
20260506182605 12 0.0 0.0 0.00 0.00 0.00 87 1006.7
20260506181604 12 0.0 0.0 0.00 0.00 0.00 87 1007.0
20260506180605 13 0.0 0.0 0.00 0.00 0.00 85 1007.1
20260506175605 13 0.0 0.0 0.00 0.00 0.00 86 1007.0
20260506174605 13 0.0 0.0 0.00 0.00 0.00 85 1006.8
20260506173604 13 0.0 0.0 0.00 0.00 0.00 84 1006.8
20260506172604 13 0.0 0.0 0.00 0.00 0.00 83 1007.1
20260506171605 13 0.0 0.0 0.00 0.00 0.00 80 1007.0
20260506170605 14 0.0 0.0 0.00 0.00 0.00 78 1006.9
20260506165604 15 0.0 0.0 0.00 0.00 0.00 73 1006.9
20260506164604 16 0.0 0.0 0.00 0.00 0.00 68 1006.1
20260506163605 17 0.0 0.0 0.00 0.00 0.00 62 1005.8
20260506162604 17 0.0 0.0 0.00 0.00 0.00 59 1006.0
20260506161605 17 0.0 0.0 0.00 0.00 0.00 58 1005.8
20260506160604 18 0.0 0.0 0.00 0.00 0.00 54 1005.9
20260506155604 18 0.0 0.0 0.00 0.00 0.00 51 1006.2
20260506154605 18 0.0 0.0 0.00 0.00 0.00 49 1006.2
20260506153604 18 0.0 0.0 0.00 0.00 0.00 47 1006.1
20260506152604 19 0.0 0.0 0.00 0.00 0.00 47 1006.2
20260506151609 18 0.0 0.0 0.00 0.00 0.00 48 1006.3
20260506150602 19 0.0 0.0 0.00 0.00 0.00 47 1006.5
20260506145602 18 0.0 0.0 0.00 0.00 0.00 49 1006.6
20260506144602 20 0.0 0.0 0.00 0.00 0.00 45 1006.6
20260506143602 20 0.0 0.0 0.00 0.00 0.00 46 1006.5
20260506142602 20 0.0 0.0 0.00 0.00 0.00 45 1006.6
20260506141602 20 0.0 0.0 0.00 0.00 0.00 46 1006.6
20260506140602 19 0.0 0.0 0.00 0.00 0.00 47 1006.7
20260506135602 20 0.0 0.0 0.00 0.00 0.00 45 1006.9
20260506134602 20 0.0 0.0 0.00 0.00 0.00 46 1007.0
20260506133602 20 0.0 0.0 0.00 0.00 0.00 49 1007.0
20260506132602 18 0.0 0.0 0.00 0.00 0.00 50 1007.2
20260506131602 17 0.0 0.0 0.00 0.00 0.00 55 1007.2
20260506130602 17 0.0 0.0 0.00 0.00 0.00 56 1007.5
20260506125602 18 0.0 0.0 0.00 0.00 0.00 54 1007.5
20260506124602 18 0.0 0.0 0.00 0.00 0.00 54 1007.6
20260506123602 18 0.0 0.0 0.00 0.00 0.00 53 1007.6
20260506122602 18 0.0 0.0 0.00 0.00 0.00 53 1007.8
20260506121602 18 0.0 0.0 0.00 0.00 0.00 54 1007.9
20260506120602 17 0.0 0.0 0.00 0.00 0.00 55 1007.8
20260506115602 17 0.0 0.0 0.00 0.00 0.00 56 1007.7
20260506114602 16 0.0 0.0 0.00 0.00 0.00 56 1007.8
20260506113602 16 0.0 0.0 0.00 0.00 0.00 60 1007.9
20260506112602 16 0.0 0.0 0.00 0.00 0.00 61 1007.9
20260506111602 16 0.0 0.0 0.00 0.00 0.00 64 1007.9
20260506110602 16 0.0 0.0 0.00 0.00 0.00 62 1008.0
20260506105602 16 0.0 0.0 0.00 0.00 0.00 63 1008.0
20260506104602 16 0.0 0.0 0.00 0.00 0.00 62 1007.9
20260506103602 16 0.0 0.0 0.00 0.00 0.00 64 1007.9
20260506102602 15 0.0 0.0 0.00 0.00 0.00 65 1007.8
20260506101602 16 0.0 0.0 0.00 0.00 0.00 63 1008.0
20260506100602 15 0.0 0.0 0.00 0.00 0.00 67 1007.9
20260506095602 14 0.0 0.0 0.00 0.00 0.00 70 1007.9
20260506094602 14 0.0 0.0 0.00 0.00 0.00 70 1007.8
20260506093602 13 0.0 0.0 0.00 0.00 0.00 69 1007.6
20260506092602 13 0.0 0.0 0.00 0.00 0.00 72 1007.6
20260506091602 13 0.0 0.0 0.00 0.00 0.00 73 1007.7
20260506090602 13 0.0 0.0 0.00 0.00 0.00 71 1007.8
20260506085602 13 0.0 0.0 0.00 0.00 0.00 72 1007.8
20260506084602 13 0.0 0.0 0.00 0.00 0.00 71 1007.6
20260506083602 13 0.0 0.0 0.00 0.00 0.00 71 1007.6
20260506082602 13 0.0 0.0 0.00 0.00 0.00 72 1007.5
20260506081603 12 0.0 0.0 0.00 0.00 0.00 75 1007.6
20260506080603 12 0.0 0.0 0.00 0.00 0.00 76 1007.4
20260506072603 13 0.0 0.0 0.00 0.00 0.00 76 1007.2
20260506071603 13 0.0 0.0 0.00 0.00 0.00 75 1007.1
20260506070603 12 0.0 0.0 0.00 0.00 0.00 80 1007.1
20260506061603 12 0.0 0.0 0.00 0.00 0.00 82 1006.9
20260506060603 11 0.0 0.0 0.00 0.00 0.00 82 1007.1
20260506050603 11 0.0 0.0 0.00 0.00 0.00 84 1006.8
20260506044603 11 0.0 0.0 0.00 0.00 0.00 86 1006.6
20260506043603 11 0.0 0.0 0.00 0.00 0.00 85 1006.5
20260506042603 11 0.0 0.0 0.00 0.00 0.00 86 1006.4
20260506041603 11 0.0 0.0 0.00 0.00 0.00 84 1006.5
20260506040603 11 0.0 0.0 0.00 0.00 0.00 87 1006.4
20260506035603 11 0.0 0.0 0.00 0.00 0.00 89 1006.4
20260506034603 11 0.0 0.0 0.00 0.00 0.00 89 1006.4
20260506033603 11 0.0 0.0 0.00 0.00 0.00 90 1006.4
20260506032603 11 0.0 0.0 0.00 0.00 0.00 90 1006.3
20260506031606 11 0.0 0.0 0.00 0.00 0.00 90 1006.4
20260506030601 11 0.0 0.0 0.00 0.00 0.00 91 1006.2
20260506025601 11 0.0 0.0 0.00 0.00 0.00 91 1006.3
20260506024601 11 0.0 0.0 0.00 0.00 0.00 91 1006.3
20260506023602 11 0.0 0.0 0.00 0.00 0.00 90 1006.3
20260506022601 11 0.0 0.0 0.00 0.00 0.00 91 1006.4